Location: La Brionne
(46.1728°N, 1.7849°E)
Time: 09:06:48
(UTC+00:00)

ATLAS 3B R/B - Pass Details

Date: 16 June 2021
Orbit: 1003 x 1191 km, 63.8° (Epoch: 21 July)

Event Time Altitude Azimuth Distance (km) Brightness Sun altitude
Exits shadow 21:18:02 - 180° (S) 2,915 4.5 -12.0°
Reaches altitude 10° 21:18:27 10° 178° (S) 2,773 4.4 -12.1°
Maximum altitude 21:24:16 36° 114° (ESE) 1,569 3.2 -12.6°
Drops below altitude 10° 21:30:14 10° 51° (NE) 2,858 5.0 -13.2°
Sets 21:33:07 0° 44° (NE) 3,842 5.8 -13.5°
